Home   Weather   Sidney   Past weeks

Flag for Canada Past Weather in Sidney, British Columbia, Canada — Yesterday and Last 2 Weeks

Now
59 °F

Mostly cloudy.


Feels Like: 58 °F
Forecast: 58 / 70 °F
Wind: 6 mph from East

Location: Victoria Int. Airportb. C.

Current Time: Jul 22, 2017 at 7:53:50 am

Latest Report: Jul 22, 2017 at 7:38 am


Visibility: 20 mi

Pressure: 30.18 "Hg

Humidity: 88%

Dew Point: 55 °F

Location of SidneyLocation

Past Weather in Sidney — Graph

°F

Sidney Temperature Yesterday

Maximum temperature yesterday: 64 °F (at 4:00 pm)
Minimum temperature yesterday: 55 °F (at 2:00 am)
Average temperature yesterday: 61 °F

High & Low Weather Summary for the Past Weeks

 TemperatureHumidityPressure
High77 °F (Jul 7, 3:00 pm)94% (Jul 8, 5:00 am)30.26 "Hg (Jul 8, 5:00 am)
Low54 °F (Jul 7, 6:00 am)33% (Jul 18, 11:00 pm)29.95 "Hg (Jul 12, 8:00 pm)
Average64 °F64%30.08 "Hg
* Reported Jul 7 6:00 am — Jul 22 6:00 am, Sidney. Weather by CustomWeather, © 2017

Note: Actual official high and low records may vary slightly from our data, if they occured in-between our weather recording intervals... More about our weather records

Advertising

Sidney Weather History for the Previous 24 Hours

Scroll right to see more
 ConditionsComfort  
Time TempWeatherWind HumidityBarometerVisibility
6:00 am
Sat, Jul 22
57 °FMostly cloudy.5 mph94%30.16 "Hg15 mi
5:35 am57 °FMostly cloudy.6 mph94%30.16 "Hg15 mi
5:00 am59 °FLight rain. Mostly cloudy.5 mph82%30.15 "Hg15 mi
4:26 am59 °FMostly cloudy.6 mph82%30.15 "Hg15 mi
4:00 am59 °FLight rain. Mostly cloudy.6 mph82%30.14 "Hg15 mi
3:00 am61 °FMostly cloudy.No wind77%30.14 "Hg20 mi
2:00 am61 °FMostly cloudy.7 mph77%30.13 "Hg15 mi
1:00 am63 °FMostly cloudy.2 mph83%30.14 "Hg15 mi
12:00 am63 °FMostly cloudy.2 mph77%30.13 "Hg15 mi
11:00 pm
Fri, Jul 21
63 °FMostly cloudy.2 mph77%30.13 "Hg20 mi
10:48 pm63 °FLight rain. Mostly cloudy.3 mph77%30.13 "Hg15 mi
10:00 pm63 °FOvercast.2 mph73%30.14 "Hg20 mi
9:00 pm63 °FMostly cloudy.2 mph73%30.14 "Hg20 mi
8:34 pm64 °FLight rain. Partly sunny.No wind68%30.13 "Hg20 mi
8:00 pm64 °FBroken clouds.3 mph68%30.14 "Hg30 mi
7:00 pm64 °FPartly sunny.3 mph68%30.14 "Hg30 mi
6:00 pm64 °FPartly sunny.6 mph68%30.14 "Hg30 mi
5:00 pm64 °FMostly cloudy.5 mph68%30.15 "Hg30 mi
4:44 pm64 °FMostly cloudy.5 mph68%30.15 "Hg30 mi
4:00 pm64 °FLight rain. Mostly cloudy.5 mph68%30.16 "Hg30 mi
3:00 pm63 °FLight rain. Mostly cloudy.5 mph68%30.16 "Hg30 mi
2:46 pm63 °FMostly cloudy.5 mph68%30.16 "Hg30 mi
2:17 pm63 °FLight rain. Scattered clouds.3 mph68%30.16 "Hg30 mi
2:00 pm63 °FMostly cloudy.5 mph68%30.16 "Hg30 mi
1:00 pm63 °FMostly cloudy.7 mph68%30.16 "Hg30 mi
12:00 pm61 °FMostly cloudy.6 mph72%30.16 "Hg30 mi
11:00 am61 °FPartly sunny.7 mph72%30.15 "Hg30 mi
10:00 am61 °FBroken clouds.9 mph77%30.15 "Hg30 mi
9:00 am61 °FBroken clouds.6 mph72%30.14 "Hg30 mi
8:00 am59 °FBroken clouds.2 mph77%30.14 "Hg30 mi
7:00 am59 °FPartly sunny.6 mph72%30.13 "Hg30 mi
Weather by CustomWeather, © 2017

See weather overviewHow to use our weather pages